| DS18B20 | SHTC3 | ||||||
|---|---|---|---|---|---|---|---|
| ID | Date d/m/Y & Time | data1 สูง | data2 ต่ำ | data3 นอก | temp pcb | hum pcb | Time |
| 10874 | 11/04/2026 14:17:00 | 34.2  | 33.0  | 34.0  | 33.8  | 66.5  | 14:17 |
| 10873 | 11/04/2026 14:12:17 | 34.2  | 33.0  | 33.9  | 33.8  | 66.5  | 14:12 |
| 10872 | 11/04/2026 14:07:33 | 34.2  | 32.9  | 33.7  | 33.8  | 66.3  | 14:07 |
| 10871 | 11/04/2026 14:02:50 | 34.2  | 32.9  | 34.2  | 33.8  | 66.1  | 14:02 |
| 10870 | 11/04/2026 13:58:08 | 34.2  | 32.9  | 34.2  | 33.8  | 66.2  | 13:58 |
| 10869 | 11/04/2026 13:53:27 | 34.2  | 32.9  | 34.6  | 33.8  | 66.1  | 13:53 |
| 10868 | 11/04/2026 13:48:44 | 34.2  | 32.9  | 34.3  | 33.7  | 66.0  | 13:48 |
| 10867 | 11/04/2026 13:44:02 | 34.2  | 32.8  | 34.6  | 33.8  | 66.1  | 13:44 |
| 10866 | 11/04/2026 13:39:20 | 34.2  | 32.8  | 34.9  | 33.6  | 65.8  | 13:39 |
| 10865 | 11/04/2026 13:34:38 | 34.2  | 32.8  | 35.2  | 33.6  | 65.8  | 13:34 |
| 10864 | 11/04/2026 13:29:56 | 34.2  | 32.8  | 35.0  | 33.7  | 65.7  | 13:29 |
| 10863 | 11/04/2026 13:25:15 | 34.2  | 32.7  | 35.0  | 33.7  | 65.9  | 13:25 |
| 10862 | 11/04/2026 13:20:33 | 34.1  | 32.7  | 35.1  | 33.6  | 65.8  | 13:20 |
| 10861 | 11/04/2026 13:15:49 | 34.1  | 32.6  | 34.7  | 33.6  | 65.8  | 13:15 |
| 10860 | 11/04/2026 13:11:06 | 34.1  | 32.6  | 35.2  | 33.4  | 65.7  | 13:11 |
| 10859 | 11/04/2026 13:06:24 | 34.1  | 32.6  | 35.5  | 33.6  | 65.8  | 13:06 |
| 10858 | 11/04/2026 13:01:42 | 34.1  | 32.5  | 35.4  | 33.5  | 65.6  | 13:01 |
| 10857 | 11/04/2026 12:57:00 | 34.1  | 32.4  | 34.9  | 33.4  | 65.6  | 12:57 |
| 10856 | 11/04/2026 12:52:18 | 34.0  | 32.4  | 35.6  | 33.3  | 65.6  | 12:52 |
| 10855 | 11/04/2026 12:47:36 | 33.9  | 32.3  | 35.9  | 33.3  | 65.5  | 12:47 |
| 10854 | 11/04/2026 12:42:52 | 33.9  | 32.3  | 36.0  | 33.3  | 65.6  | 12:42 |
| 10853 | 11/04/2026 12:38:08 | 33.8  | 32.2  | 36.1  | 33.1  | 65.6  | 12:38 |
| 10852 | 11/04/2026 12:33:24 | 33.8  | 32.2  | 35.9  | 33.1  | 65.6  | 12:33 |
| 10851 | 11/04/2026 12:28:42 | 33.8  | 32.2  | 36.0  | 33.1  | 65.2  | 12:28 |